Flag for U.S.A. Weather past 2 weeks in Casper, Wyoming, U.S.A.

Now
57 °F

Clear.


Feels Like: 55 °F
Forecast: 55 / 91 °F
Wind: 8 mph from Northeast

Location: Natrona County International Airport

Current Time: Aug 1, 2015 at 2:51:19 AM

Latest Report: Aug 1, 2015 at 1:53 AM


Visibility: 10 mi

Pressure: 29.96 "Hg (24.86 "Hg at 1569m altitude)

Humidity: 58%

Dew point: 42 °F

Location of CasperLocation

Historic Weather in Casper — Graph

°F

Casper temperature yesterday

Maximum temperature yesterday: 92 °F (at 3:53 PM)
Minimum temperature yesterday: 49 °F (at 4:53 AM)
Average temperature yesterday: 72 °F

Past Weeks' High & Low Weather Summary

 TemperatureHumidityPressure
High93 °F (Jul 26, 3:53 PM)89% (Jul 17, 5:53 AM)30.24 "Hg (Jul 17, 5:53 AM)
Low37 °F (Jul 29, 5:53 AM)7% (Jul 26, 3:53 PM)29.53 "Hg (Jul 27, 1:53 PM)
Average69 °F38%29.92 "Hg
* Reported Jul 17 12:53 AM — Aug 1 12:53 AM, Casper, Weather by CustomWeather, © 2015

Note: Actual official high and low records may vary slightly from our data, if they occured in-between our weather recording intervals... More about our weather records

Advertising

Casper weather history for previous 24 hours

 ConditionsComfort  
Time TempWeatherWind HumidityBarometerVisibility
12:53 AM
Sat, Aug 1
62 °FClear.7 mph46%29.96 "Hg10 mi
11:53 PM
Fri, Jul 31
64 °FClear.8 mph40%29.96 "Hg10 mi
10:53 PM60 °FClear.8 mph47%29.99 "Hg10 mi
9:53 PM73 °FClear.N/A27%29.96 "Hg10 mi
8:53 PM75 °FSunny.8 mph22%29.96 "Hg10 mi
7:53 PM85 °FSunny.7 mph12%29.94 "Hg10 mi
6:53 PM87 °FSunny.3 mph10%29.96 "Hg10 mi
5:53 PM91 °FSunny.9 mph9%29.97 "Hg10 mi
4:53 PM90 °FSunny.10 mph9%29.99 "Hg10 mi
3:53 PM92 °FSunny.14 mph9%30.00 "Hg10 mi
2:53 PM90 °FSunny.5 mph9%30.03 "Hg10 mi
1:53 PM89 °FSunny.5 mph9%30.06 "Hg10 mi
12:53 PM88 °FSunny.N/A15%30.07 "Hg10 mi
11:53 AM86 °FSunny.6 mph18%30.09 "Hg10 mi
10:53 AM79 °FSunny.No wind25%30.12 "Hg10 mi
9:53 AM76 °FSunny.No wind25%30.12 "Hg10 mi
8:53 AM69 °FSunny.3 mph30%30.18 "Hg10 mi
7:53 AM63 °FSunny.5 mph33%30.16 "Hg10 mi
6:53 AM54 °FClear.No wind51%30.16 "Hg10 mi
5:53 AM51 °FClear.3 mph52%30.16 "Hg10 mi
4:53 AM49 °FClear.No wind61%30.16 "Hg10 mi
3:53 AM50 °FClear.6 mph52%30.16 "Hg10 mi
2:53 AM52 °FClear.7 mph47%30.14 "Hg10 mi
Weather by CustomWeather, © 2015

See weather overviewHow to use our weather pages